Terminal Aerodrome Forecast
Issued by NWS Lake Charles, LA

Home | Current Version | Previous Version | Text Only | Print | Product List | Glossary On
Versions: 1 2 3 4 5 6 7 8 9 10 11 12 13 14
000
FTUS44 KLCH 192300
TAFBPT
TAF
KBPT 192320Z 2000/2024 12008KT P6SM VCSH SCT025 BKN050
      TEMPO 2000/2002 4SM SHRA OVC025
     FM200300 06004KT P6SM FEW025
      TEMPO 2009/2013 5SM BR
     FM201500 09012KT P6SM SCT035=

USA.gov is the U.S. government's official web portal to all federal, state and local government web resources and services.